This demonstration page uses our WeatherBlox Daily Observations layout. Learn more.

Left ArrowRight Arrow

39.08367, -84.50855

Hourly Observations for January 14, 2020

Temp ( °F °C ) Dew Point ( °F °C ) Humidity (%) Winds ( mph kmh ) Pressure ( in mb ) Visibility ( mi km ) Precip ( " mm )
12:53 am 00:53 Clear 36 2.2 35 1.7 97 97 Calm 30.23 1024 10 16 0.00 0.00
1:53 am 01:53 Partly Cloudy 37 2.8 36 2.2 96 96 Calm 30.21 1023 9 14 0.00 0.00
2:53 am 02:53 Mostly Clear 37 2.8 36 2.2 96 96 Calm 30.18 1022 8 13 0.00 0.00
3:34 am 03:34 Mostly Clear with Mist and Fog 36 2.2 35 1.7 97 97 Calm 30.16 1021 1 1 0.00 0.00
3:43 am 03:43 Partly Cloudy with Mist and Fog 36 2.2 36 2.2 100 100 Calm 30.15 1021 2 3 0.00 0.00
3:50 am 03:50 Mostly Cloudy 37 3 36 2 93 93 Calm 30.15 1021 7 11 0.00 0.00
3:53 am 03:53 Mostly Cloudy 37 2.8 36 2.2 96 96 Calm 30.13 1020 7 11 0.00 0.00
4:53 am 04:53 Partly Cloudy 37 2.8 36 2.2 96 96 Calm 30.11 1020 8 13 0.00 0.00
5:47 am 05:47 Mostly Cloudy with Mist and Fog 36 2 36 2 100 100 Calm 30.12 1020 4 6 0.00 0.00
5:53 am 05:53 Mostly Cloudy with Mist and Fog 36 2.2 36 2.2 100 100 Calm 30.11 1020 4 6 0.00 0.00
6:26 am 06:26 Cloudy 39 3.9 38 3.3 96 96 Calm 30.12 1020 9 14 0.00 0.00
6:53 am 06:53 Cloudy 40 4.4 39 3.9 97 97 Calm 30.13 1020 8 13 0.00 0.00
7:35 am 07:35 Cloudy with Mist and Fog 41 5 39 3.9 93 93 Calm 30.15 1021 6 10 0.00 0.00
7:53 am 07:53 Cloudy with Mist and Fog 40 4.4 40 4.4 100 100 Calm 30.14 1021 6 10 0.00 0.00
8:53 am 08:53 Cloudy with Mist and Fog 42 5.6 41 5 96 96 Calm 30.15 1021 5 8 0.00 0.00
9:53 am 09:53 Cloudy 47 8.3 45 7.2 93 93 WSW 12 19 30.17 1022 7 11 0.00 0.00
10:53 am 10:53 Cloudy 49 9.4 44 6.7 83 83 W 8 13 30.19 1022 10 16 0.00 0.00
11:53 am 11:53 Cloudy 49 9.4 43 6.1 80 80 WSW 10 17 30.19 1023 10 16 0.00 0.00
12:53 pm 12:53 Cloudy 50 10 43 6.1 77 77 W 9 15 30.19 1022 10 16 0.00 0.00
1:53 pm 13:53 Mostly Cloudy 53 11.7 43 6.1 69 69 WSW 8 13 30.16 1022 10 16 0.00 0.00
2:00 pm 14:00 Partly Cloudy 53 11.7 43 6.1 69 69 W 8 13 30.16 1021 10 16 0.00 0.00
2:53 pm 14:53 Mostly Sunny 55 12.8 43 6.1 64 64 W 9 15 30.16 1022 10 16 0.00 0.00
3:53 pm 15:53 Sunny 54 12.2 43 6.1 67 67 W 7 11 30.18 1022 10 16 0.00 0.00
4:53 pm 16:53 Sunny 52 11.1 42 5.6 69 69 NNW 7 11 30.19 1023 10 16 0.00 0.00
5:53 pm 17:53 Clear 46 7.8 40 4.4 79 79 NW 6 9 30.21 1023 10 16 0.00 0.00
6:53 pm 18:53 Clear 42 5.6 39 3.9 89 89 Calm 30.21 1023 10 16 0.00 0.00
7:53 pm 19:53 Clear with Fog 40 4.4 38 3.3 93 93 Calm 30.23 1024 10 16 0.00 0.00
8:53 pm 20:53 Mostly Clear with Fog 37 2.8 36 2.2 96 96 Calm 30.23 1024 6 10 0.00 0.00
9:53 pm 21:53 Clear with Patchy Fog 35 1.7 35 1.7 100 100 Calm 30.23 1024 6 10 0.00 0.00
10:53 pm 22:53 Partly Cloudy with Mist and Fog 36 2.2 35 1.7 97 97 NNE 3 6 30.23 1024 2 2 0.00 0.00
10:58 pm 22:58 Mostly Cloudy with Mist and Fog 33 0.6 33 0.6 100 100 NNE 3 6 30.26 1025 1 1 0.00 0.00
11:18 pm 23:18 Mostly Cloudy with Fog 33 0.6 33 0.6 100 100 Calm 30.26 1025 0 0 0.00 0.00
11:24 pm 23:24 Mostly Cloudy with Mist and Fog 34 1.1 33 0.6 97 97 Calm 30.26 1025 1 2 0.00 0.00
11:32 pm 23:32 Mostly Cloudy with Fog 34 1.1 33 0.6 97 97 Calm 30.26 1025 1 1 0.00 0.00
11:39 pm 23:39 Mostly Cloudy with Fog 33 0.6 33 0.6 100 100 Calm 30.26 1025 0 0 0.00 0.00
11:46 pm 23:46 Mostly Cloudy with Mist and Fog 33 0.6 32 0 96 96 Calm 30.26 1025 1 1 0.00 0.00
11:53 pm 23:53 Mostly Cloudy with Fog 33 0.6 33 0.6 100 100 Calm 30.24 1024 1 1 0.00 0.00

Powered by AerisWeather